This is the latest recevied weather packets stored in our database for station/object K1BES. If no packets are shown the sender has not sent any weather packets the latest 10 day(s).
| Time | Temp. | Humidity | Pressure | Rain* | Wind** | Luminosity | Snow |
|---|---|---|---|---|---|---|---|
| 1777744412 | 31.11° C | 75% | 1014 hPa | 0 mm | - | 780 W/m² | - |
| 1777744109 | 31.11° C | 73% | 1013.8 hPa | 0 mm | - | 952 W/m² | - |
| 1777743807 | 31.11° C | 75% | 1013.6 hPa | 0 mm | - | 1022 W/m² | - |
| 1777743503 | 30.56° C | 76% | 1013.9 hPa | 0 mm | - | 1014 W/m² | - |
| 1777743200 | 30° C | 77% | 1014.2 hPa | 0 mm | - | 1005 W/m² | - |
| 1777742898 | 30° C | 77% | 1014.4 hPa | 0 mm | - | 1002 W/m² | - |
| 1777742595 | 30° C | 77% | 1014.4 hPa | 0 mm | - | 1080 W/m² | - |
| 1777742290 | 30° C | 77% | 1014.4 hPa | 0 mm | - | 864 W/m² | - |
| 1777741988 | 29.44° C | 78% | 1014.5 hPa | 0 mm | - | 913 W/m² | - |
| 1777741685 | 28.89° C | 80% | 1014.3 hPa | 0 mm | - | 804 W/m² | - |
| 1777741381 | 29.44° C | 79% | 1014.6 hPa | 0 mm | - | 571 W/m² | - |
| 1777741077 | 30° C | 77% | 1014.3 hPa | 0 mm | - | 587 W/m² | - |
| 1777740774 | 30° C | 78% | 1014.3 hPa | 0 mm | - | 805 W/m² | - |
| 1777740471 | 30° C | 76% | 1014.2 hPa | 0 mm | - | 839 W/m² | - |
| 1777740168 | 30.56° C | 74% | 1014.5 hPa | 0 mm | - | 938 W/m² | - |
| 1777739864 | 31.11° C | 74% | 1014.1 hPa | 0 mm | - | 994 W/m² | - |
| 1777739561 | 30.56° C | 75% | 1014.2 hPa | 0 mm | - | 981 W/m² | - |
| 1777739258 | 30° C | 76% | 1014.5 hPa | 0 mm | - | 1033 W/m² | - |
| 1777738955 | 30° C | 76% | 1014.3 hPa | 0 mm | - | 883 W/m² | - |
| 1777738652 | 30° C | 76% | 1014.4 hPa | 0 mm | - | 928 W/m² | - |
| 1777738348 | 30° C | 76% | 1014.2 hPa | 0 mm | - | 911 W/m² | - |
| 1777738046 | 30° C | 77% | 1014.2 hPa | 0 mm | - | 908 W/m² | - |
| 1777737745 | 30° C | 78% | 1014.2 hPa | 0 mm | - | 776 W/m² | - |
| 1777737443 | 30° C | 77% | 1014.1 hPa | 0 mm | - | 790 W/m² | - |
| 1777737140 | 29.44° C | 78% | 1014 hPa | 0 mm | - | 878 W/m² | - |
* Rain latest hour (hover to see other rain measurements)
** Current wind speed in m/s (hover to see current wind gust speed)